Location: Crescent
(42.8242°N, 73.7329°W)
Time: 09:00:57
(UTC+00:00)

Tiros 1 - Pass Details

Date: 26 February 2026
Orbit: 618 x 649 km, 48.4° (Epoch: 7 March)

Event Time Altitude Azimuth Distance (km) Brightness Sun altitude
Exits shadow 11:00:05 - 247° (WSW) 2,380 9.5 -7.3°
Reaches altitude 10° 11:01:01 10° 248° (WSW) 2,019 9.1 -7.1°
Maximum altitude 11:05:41 79° 336° (NNW) 646 7.1 -6.2°
Drops below altitude 10° 11:10:18 10° 63° (ENE) 2,004 10.7 -5.4°
Sets 11:12:37 0° 65° (ENE) 2,908 11.6 -5.0°
